SCP
1 1 0 0 0 0 1 1 1 1 1 1 1 2 2 2 2 3 4 4 4 4 3 2 2 2 2 2 2 3 3 3 3 3 2 2 4 5 5 3 2 1 1 1
1 1 1 1 0 1 1 1 1 1 1 1 1 2 2 3 3 3 3 3 3 4 3 2 2 3 3 3 3 3 3 3 3 2 2 2 3 4 5 3 2 2 1 1
1 1 1 1 1 1 1 1 1 1 1 1 2 2 3 3 3 2 2 2 2 3 3 3 3 3 3 3 4 4 4 3 3 2 2 2 2 3 3 3 2 2 1 1
1 1 1 1 1 1 1 1 1 1 1 1 2 2 2 2 2 2 2 2 2 2 2 2 2 3 3 3 4 3 3 3 2 1 1 2 2 2 2 2 2 2 1 1
1 1 1 1 1 1 1 1 1 1 1 1 1 1 1 1 2 2 2 2 2 2 2 2 2 2 2 3 3 3 2 2 2 1 1 1 2 2 2 2 2 2 1 1
1 1 1 1 1 1 1 1 1 1 1 1 1 1 2 2 2 3 3 2 2 2 2 2 2 2 2 2 2 2 2 2 1 1 1 2 2 2 2 2 2 2 1 1
1 1 1 1 1 1 1 1 1 1 1 1 1 1 2 2 3 3 3 2 2 2 2 2 2 2 1 1 1 1 1 1 1 1 1 1 2 3 3 2 2 2 1 1
1 1 1 1 1 1 1 1 1 1 1 2 2 1 1 3 4 4 3 2 2 2 2 2 2 2 1 1 1 1 1 1 1 1 1 1 2 3 3 3 3 2 2 1
1 1 1 1 2 2 2 2 2 2 2 2 2 1 1 3 4 4 3 2 2 1 1 1 2 2 1 1 1 1 1 2 2 1 1 1 2 2 3 3 3 2 2 2
1 1 1 1 1 2 2 2 2 2 2 3 2 1 1 3 4 4 3 2 1 1 1 1 1 1 1 1 1 1 1 2 2 2 1 1 1 2 2 2 2 2 2 2
0 1 1 1 1 2 2 2 3 3 3 3 2 2 2 3 3 3 2 1 1 1 1 1 1 1 1 1 1 1 1 1 2 2 1 1 1 1 1 1 1 1 1 1
0 1 1 1 1 1 2 2 3 3 3 3 2 2 2 2 2 2 1 1 1 1 1 1 1 1 1 1 1 1 1 1 1 1 1 1 1 1 1 0 0 0 0 0
0 1 1 1 1 1 1 1 1 2 1 1 1 1 1 1 1 1 1 1 1 1 1 1 1 1 1 1 1 1 1 1 0 1 1 1 1 1 1 0 0 0 0 0
0 0 0 1 0 0 0 0 0 0 0 0 0 0 0 1 1 1 1 1 1 1 1 1 1 1 0 1 1 1 1 0 0 0 0 1 1 1 1 0 0 0 0 0
0 0 0 0 0 0 0 0 0 0 0 0 0 0 0 0 0 0 1 1 1 1 1 1 1 0 0 0 1 1 1 0 0 0 0 0 0 1 1 0 1 1 1 0
0 0 0 0 0 0 0 0 0 0 0 0 0 0 0 0 0 0 0 1 1 1 1 1 1 0 0 0 1 1 1 0 0 0 0 0 0 1 1 1 1 1 1 1
0 0 0 0 0 0 0 0 0 0 0 0 0 0 0 0 0 0 0 0 1 1 1 1 1 0 0 0 1 1 1 1 0 0 0 0 0 0 0 1 1 1 1 1
0 0 0 0 0 0 0 0 0 0 0 0 0 0 0 1 1 1 1 0 0 1 1 1 1 0 0 0 0 1 1 1 1 1 0 0 0 0 0 0 0 0 0 1
0 0 0 0 0 0 0 0 0 0 0 0 0 0 1 1 1 1 1 1 1 1 1 1 1 0 0 0 0 1 1 1 1 1 1 0 0 0 0 0 0 0 0 0
0 0 0 0 0 0 0 0 0 0 0 0 0 0 1 1 1 1 1 1 1 1 1 1 1 1 1 0 0 1 1 1 1 1 1 1 0 0 0 0 0 0 0 0
0 0 0 0 0 0 0 0 0 0 0 0 0 0 0 0 1 1 1 1 1 1 1 1 1 1 1 0 0 1 1 2 2 1 1 1 1 1 1 1 0 0 0 0
0 0 0 0 0 0 0 0 0 0 0 0 0 0 0 0 0 1 1 1 1 1 1 1 1 1 1 0 0 1 2 2 2 2 1 1 1 1 1 0 0 0 0 0
0 0 0 0 0 0 0 0 0 0 1 1 1 1 1 0 0 0 1 1 1 1 1 1 1 0 0 0 1 1 2 3 2 2 1 1 1 1 0 0 0 0 0 0
0 0 0 0 0 0 0 1 1 1 1 1 1 1 1 0 0 0 1 1 0 0 1 1 0 0 0 0 1 2 3 3 3 2 1 1 1 0 0 0 0 0 0 0
0 0 0 0 0 1 1 1 1 1 1 1 1 0 0 0 0 0 1 1 0 0 0 0 0 0 0 0 1 2 2 2 2 2 1 1 1 0 0 0 0 0 0 0
0 0 0 0 0 0 1 1 1 1 0 0 0 0 0 0 0 0 1 1 1 0 0 0 0 0 0 0 1 1 2 2 2 1 1 1 0 0 0 0 0 0 0 0
0 0 0 0 0 0 0 0 0 0 0 0 0 0 0 0 0 1 1 1 1 0 1 1 0 0 0 0 1 1 1 1 1 1 1 1 0 0 0 0 0 0 0 0
Wind_Speed
10 8 8 9 10 10 12 13 11 8 7 3 2 1 1 2 2 2 3 3 4 4 3 3 3 3 3 3 3 4 4 4 4 4 3 3 3 3 3 3 3 3 3 4
9 8 7 8 10 11 11 10 10 8 5 2 1 1 3 3 3 3 2 3 3 3 3 3 3 3 3 3 3 4 4 4 4 4 4 3 3 3 3 3 3 3 3 3
8 8 8 9 7 8 7 6 7 7 3 0 1 1 3 3 2 2 2 2 2 2 3 3 3 3 4 3 3 3 3 3 4 4 3 3 3 3 3 3 3 3 3 3
5 7 9 1 3 2 2 1 3 3 1 1 0 1 2 3 2 1 1 1 2 2 2 2 3 3 3 3 3 3 4 3 4 4 4 3 3 2 3 2 3 3 3 4
5 7 5 3 2 2 3 2 1 2 2 0 1 3 4 4 3 2 1 1 1 1 1 2 3 3 3 3 3 3 3 3 4 4 3 3 3 3 2 2 3 3 3 3
6 7 5 3 4 4 5 4 3 2 2 1 2 3 2 3 2 3 2 2 1 1 2 2 2 3 3 3 3 2 1 2 2 3 3 3 2 2 2 2 3 3 2 3
6 6 0 6 5 4 5 2 4 3 1 1 1 2 2 2 2 2 3 2 2 2 2 2 2 2 2 1 1 0 1 1 1 2 3 3 2 2 3 3 3 3 3 3
5 5 1 7 3 2 4 4 3 3 1 1 2 3 3 3 3 3 3 3 3 2 2 2 1 1 1 1 1 0 0 1 1 1 2 2 2 2 3 3 3 3 3 4
2 2 5 4 4 4 3 2 3 3 2 2 2 2 3 3 3 3 3 3 2 2 2 2 1 1 0 1 1 1 0 0 0 1 1 1 2 3 3 3 3 3 3 3
1 2 3 3 5 5 5 4 4 4 3 3 3 3 3 2 2 2 3 2 2 2 2 2 1 1 1 1 1 1 0 0 0 1 1 1 2 3 2 2 3 3 3 3
2 1 1 3 4 5 5 5 5 5 5 4 3 2 2 3 3 2 2 2 2 2 1 1 1 1 1 1 0 1 1 1 1 1 1 1 2 2 3 2 2 3 3 3
1 2 1 2 4 4 4 4 5 5 4 3 3 2 3 3 3 2 2 2 2 2 1 1 1 1 1 1 0 1 1 1 2 2 2 2 2 2 1 2 1 2 3 4
1 1 2 2 2 3 2 3 3 4 3 3 3 3 2 2 1 1 2 2 2 1 1 1 1 0 1 0 0 1 2 2 2 2 2 3 3 3 2 1 2 2 3 3
1 0 0 1 1 2 2 2 3 3 3 3 3 3 3 2 2 1 1 1 1 1 1 0 1 1 1 0 1 1 2 2 2 2 3 3 3 3 3 3 2 2 2 3
1 0 0 1 1 1 1 2 2 2 3 3 3 3 3 3 2 1 1 1 1 0 1 1 1 1 1 1 1 2 2 2 2 2 3 3 3 3 3 4 3 3 2 1
1 1 0 0 0 1 1 2 3 3 3 3 3 3 3 3 2 1 1 1 1 1 2 2 2 2 2 1 1 1 1 1 2 2 3 3 3 3 3 3 3 3 3 2
1 1 1 1 1 1 2 2 3 4 4 3 3 3 3 3 2 1 1 1 1 1 1 2 2 3 2 2 2 2 2 1 2 3 2 2 3 3 3 3 3 3 3 2
2 2 2 3 2 2 2 3 3 4 4 4 4 3 3 3 3 2 2 2 2 2 2 2 3 3 3 2 2 3 2 2 2 2 2 2 3 3 3 3 3 4 3 2
2 2 2 2 2 2 3 3 4 4 4 4 4 3 3 3 3 2 2 2 2 1 2 2 3 3 2 2 3 3 3 2 2 2 2 2 3 3 3 3 4 4 4 3
2 2 2 2 3 3 3 3 3 3 3 3 3 3 3 3 3 2 2 2 1 2 2 2 3 3 3 2 5 3 3 3 3 2 3 3 3 3 3 3 4 4 4 3
2 3 3 3 3 3 3 2 2 2 3 3 3 3 3 3 3 3 3 2 1 2 2 2 3 3 3 4 6 4 3 3 3 2 3 3 3 3 4 4 3 4 4 4
2 3 3 3 2 2 2 2 2 2 3 3 3 3 3 3 3 3 3 2 1 2 2 2 2 3 5 7 5 4 3 3 2 2 3 3 4 4 4 4 4 3 4 4
2 2 2 3 2 2 2 2 2 2 3 3 3 3 3 3 3 3 2 1 2 2 4 2 2 3 7 7 4 4 3 3 3 3 3 4 4 4 4 4 3 3 3 4
2 2 2 2 2 2 2 3 2 2 2 3 2 2 3 3 3 3 2 1 1 3 3 1 1 3 7 5 4 4 3 3 3 3 3 4 4 4 3 4 4 4 3 4
2 2 1 1 2 2 2 2 2 2 2 1 1 1 2 2 2 3 3 2 1 3 3 1 2 4 5 4 4 4 4 3 4 4 4 4 4 4 3 4 4 4 4 4
1 1 1 1 2 2 2 2 2 2 2 2 1 1 1 1 2 2 3 3 3 3 3 2 1 3 3 4 4 4 4 3 3 4 4 4 4 4 4 4 5 4 4 4
1 1 0 1 1 2 2 2 2 2 2 2 3 3 3 3 2 2 3 3 2 2 2 1 1 2 3 3 3 4 4 4 3 3 4 4 4 4 4 5 5 5 5 5
Wind_Direction
263 271 254 247 244 238 238 248 258 265 263 269 275 264 154 153 150 152 155 167 172 167 162 158 156 167 175 179 179 181 181 181 179 174 179 186 191 201 213 217 215 214 218 228
252 250 245 248 243 239 242 247 250 258 259 327 347 162 142 141 148 159 163 169 176 176 167 168 172 179 177 175 177 187 192 189 183 180 183 185 190 198 209 214 222 225 225 228
245 241 244 245 253 244 239 250 259 261 284 184 211 182 150 142 148 153 171 172 173 178 177 177 184 190 187 180 181 187 192 189 184 185 189 193 197 198 205 213 222 239 244 238
242 232 234 128 44 320 262 304 325 319 353 239 224 114 134 125 121 109 125 160 166 179 186 182 180 182 182 178 183 186 187 186 185 191 190 193 202 206 214 222 228 238 251 248
232 231 232 139 58 313 252 232 4 329 315 162 157 160 120 67 50 55 85 88 130 162 171 167 163 162 177 184 178 178 179 190 191 196 197 202 205 208 221 232 240 242 244 253
235 240 240 56 8 317 252 212 51 347 307 216 196 221 120 53 38 42 60 71 77 113 132 147 157 171 186 182 177 182 183 196 186 193 200 209 215 220 227 234 239 246 239 251
242 240 162 28 340 281 238 21 10 346 329 259 267 355 78 84 64 59 57 64 75 96 100 114 142 158 169 156 161 176 183 179 182 197 210 211 220 229 236 239 242 250 251 247
239 234 149 22 2 354 5 359 1 359 7 49 55 64 86 89 74 62 48 50 63 87 80 81 109 130 127 73 359 338 186 167 184 224 239 214 222 236 244 249 239 238 245 250
332 50 65 52 37 33 14 14 20 15 29 78 75 67 75 77 65 54 43 45 52 77 81 65 61 79 55 358 325 309 154 207 256 262 259 252 244 240 240 239 252 252 250 257
248 112 85 63 39 31 31 34 31 32 38 58 67 66 65 64 61 52 42 56 68 74 74 56 28 10 21 352 319 308 331 299 255 245 257 257 265 265 268 270 272 271 271 276
240 59 68 49 28 26 38 41 42 42 43 42 49 58 56 43 34 29 36 57 65 71 68 70 48 21 41 52 32 350 337 315 295 278 286 282 279 299 289 307 314 292 295 289
315 24 348 10 11 10 31 37 34 38 37 32 29 36 37 30 23 21 26 42 43 33 46 50 49 52 57 67 38 350 329 310 302 300 297 284 286 289 339 276 222 232 266 283
353 21 32 10 7 16 31 27 28 29 22 15 17 24 23 16 30 58 51 41 38 28 38 43 33 39 33 27 344 317 315 310 300 303 300 293 292 287 287 270 206 220 228 235
44 54 345 13 29 34 34 26 25 27 20 12 9 6 10 13 43 54 37 24 19 19 6 33 26 21 14 329 282 286 288 294 285 289 290 292 290 285 282 284 282 280 221 200
31 334 49 70 68 56 41 22 8 13 18 16 17 11 9 7 12 9 353 346 342 346 2 22 17 9 354 317 303 285 283 286 291 299 292 292 293 294 296 296 297 303 305 212
243 223 250 8 7 9 19 7 353 354 355 1 8 7 2 357 354 353 10 2 347 351 2 4 354 346 335 328 301 281 281 316 283 284 291 298 298 302 304 303 303 302 301 315
229 237 269 288 301 324 338 335 333 339 340 338 341 347 348 344 335 338 351 360 342 331 342 346 336 333 328 317 293 281 282 268 257 275 287 297 301 303 301 296 296 296 297 320
281 285 301 298 294 307 316 316 313 317 323 329 332 331 329 321 312 312 333 338 321 325 348 350 347 328 320 315 299 287 279 273 268 281 290 300 301 297 296 289 283 285 286 266
297 298 306 307 298 297 301 308 312 319 321 321 320 320 316 313 312 312 324 318 308 318 348 350 323 296 303 320 296 272 281 283 280 280 282 273 272 281 284 285 282 284 286 285
307 304 305 298 290 284 284 294 306 312 314 313 310 309 313 320 320 307 294 281 318 346 341 331 304 303 295 301 291 280 280 281 283 281 280 281 281 285 291 292 288 285 283 281
307 306 305 309 304 296 293 285 283 296 307 306 298 296 302 305 300 291 278 276 347 355 326 292 281 296 304 314 280 279 278 283 289 293 294 292 289 289 291 291 292 295 295 294
308 310 315 327 329 309 297 277 277 294 304 296 287 289 289 286 286 283 279 298 322 359 294 283 299 343 329 301 278 279 279 282 284 292 293 292 291 290 293 299 299 299 298 299
317 311 313 321 325 318 310 302 299 295 289 281 272 271 276 289 292 288 282 300 301 313 287 311 355 331 303 283 284 285 287 285 284 284 285 286 287 287 289 294 294 293 296 299
311 314 308 311 310 303 305 307 315 314 301 285 284 291 285 280 279 285 300 280 275 275 288 32 298 285 279 276 281 283 283 284 282 281 281 281 281 282 285 286 286 285 287 290
311 305 304 297 283 283 289 287 287 295 294 294 303 296 281 286 291 299 301 281 243 253 275 198 208 254 270 282 286 287 288 301 305 297 286 285 286 288 292 292 290 287 286 288
302 289 313 319 320 305 296 300 313 323 320 323 330 334 324 303 285 282 277 270 259 255 267 264 231 245 275 291 296 297 295 287 275 277 292 294 291 291 291 292 293 293 292 290
268 298 312 333 324 308 316 326 328 324 322 328 331 336 335 329 318 311 305 299 288 280 296 305 300 292 291 295 301 297 291 289 285 286 290 293 295 294 295 293 293 294 294 293